| time (UTC) | temp C | wind direction | speed KPH | gust KPH | rain 1hr cm | rain 24hr cm | rain mn cm | humidity % | barometer mb |
| 20260906080031 | 28 | 334 | 3.2 | 4.8 | 0.00 | 0.00 | 0.00 | 36 | 1023.6 |
| 20260906075035 | 27 | 333 | 3.2 | 6.4 | 0.00 | 0.00 | 0.00 | 38 | 1023.8 |
| 20260906074019 | 26 | 100 | 1.6 | 3.2 | 0.00 | 0.00 | 0.00 | 40 | 1023.7 |
| 20260906073048 | 25 | 101 | 3.2 | 4.8 | 0.00 | 0.00 | 0.00 | 44 | 1023.7 |
| 20260906071023 | 23 | 140 | 1.6 | 3.2 | 0.00 | 0.00 | 0.00 | 50 | 1023.5 |
| 20260906070033 | 22 | 141 | 1.6 | 3.2 | 0.00 | 0.00 | 0.00 | 52 | 1023.4 |
| 20260906065021 | 21 | 141 | 1.6 | 3.2 | 0.00 | 0.00 | 0.00 | 56 | 1023.4 |
| 20260906064022 | 20 | 142 | 0.0 | 0.0 | 0.00 | 0.00 | 0.00 | 56 | 1023.4 |
| 20260906063028 | 20 | 142 | 0.0 | 0.0 | 0.00 | 0.00 | 0.00 | 58 | 1023.3 |
| 20260906062017 | 18 | 142 | 1.6 | 4.8 | 0.00 | 0.00 | 0.00 | 60 | 1023.3 |
| 20260906061044 | 18 | 142 | 0.0 | 0.0 | 0.00 | 0.00 | 0.00 | 60 | 1023.1 |
| 20260906060031 | 18 | 142 | 0.0 | 0.0 | 0.00 | 0.00 | 0.00 | 62 | 1023.0 |
| 20260906055017 | 17 | 142 | 0.0 | 0.0 | 0.00 | 0.00 | 0.00 | 63 | 1023.0 |
| 20260906054025 | 17 | 142 | 0.0 | 0.0 | 0.00 | 0.00 | 0.00 | 63 | 1023.0 |
| 20260906053016 | 16 | 142 | 0.0 | 0.0 | 0.00 | 0.00 | 0.00 | 65 | 1023.1 |
| 20260906052019 | 16 | 142 | 0.0 | 0.0 | 0.00 | 0.00 | 0.00 | 65 | 1023.1 |
| 20260906051023 | 16 | 142 | 0.0 | 0.0 | 0.00 | 0.00 | 0.00 | 66 | 1023.1 |
| 20260906050031 | 16 | 142 | 0.0 | 0.0 | 0.00 | 0.00 | 0.00 | 68 | 1023.0 |
| 20260906045016 | 15 | 142 | 0.0 | 0.0 | 0.00 | 0.00 | 0.00 | 68 | 1023.1 |
| 20260906044018 | 15 | 142 | 0.0 | 0.0 | 0.00 | 0.00 | 0.00 | 69 | 1023.0 |
| 20260906043026 | 15 | 142 | 0.0 | 0.0 | 0.00 | 0.00 | 0.00 | 68 | 1022.9 |
| 20260906042015 | 15 | 142 | 0.0 | 0.0 | 0.00 | 0.00 | 0.00 | 69 | 1022.9 |
| 20260906041043 | 15 | 142 | 0.0 | 0.0 | 0.00 | 0.00 | 0.00 | 67 | 1022.7 |
| 20260906040031 | 15 | 142 | 0.0 | 0.0 | 0.00 | 0.00 | 0.00 | 69 | 1022.7 |
| 20260906035018 | 15 | 142 | 0.0 | 0.0 | 0.00 | 0.00 | 0.00 | 68 | 1022.7 |
| 20260906034025 | 15 | 142 | 0.0 | 0.0 | 0.00 | 0.00 | 0.00 | 68 | 1022.6 |
| 20260906033014 | 16 | 142 | 0.0 | 0.0 | 0.00 | 0.00 | 0.00 | 67 | 1022.4 |
| 20260906032022 | 15 | 142 | 0.0 | 0.0 | 0.00 | 0.00 | 0.00 | 69 | 1022.5 |
| 20260906031051 | 15 | 142 | 0.0 | 0.0 | 0.00 | 0.00 | 0.00 | 69 | 1022.5 |
| 20260906030031 | 15 | 142 | 0.0 | 0.0 | 0.00 | 0.00 | 0.00 | 68 | 1022.4 |
| 20260906025014 | 15 | 142 | 0.0 | 0.0 | 0.00 | 0.00 | 0.00 | 69 | 1022.4 |
| 20260906024020 | 15 | 142 | 0.0 | 0.0 | 0.00 | 0.00 | 0.00 | 70 | 1022.3 |
| 20260906023048 | 15 | 142 | 0.0 | 0.0 | 0.00 | 0.00 | 0.00 | 69 | 1022.4 |
| 20260906022015 | 15 | 142 | 0.0 | 0.0 | 0.00 | 0.00 | 0.00 | 68 | 1022.4 |
| 20260906021021 | 15 | 142 | 0.0 | 0.0 | 0.00 | 0.00 | 0.00 | 68 | 1022.4 |
| 20260906020031 | 15 | 142 | 0.0 | 0.0 | 0.00 | 0.00 | 0.00 | 69 | 1022.3 |
| 20260906015028 | 15 | 142 | 0.0 | 0.0 | 0.00 | 0.00 | 0.00 | 68 | 1022.4 |
| 20260906014016 | 15 | 142 | 0.0 | 0.0 | 0.00 | 0.00 | 0.00 | 68 | 1022.5 |
| 20260906013026 | 15 | 142 | 0.0 | 0.0 | 0.00 | 0.00 | 0.00 | 68 | 1022.5 |
| 20260906012014 | 16 | 142 | 0.0 | 0.0 | 0.00 | 0.00 | 0.00 | 67 | 1022.5 |
| 20260906011021 | 15 | 142 | 0.0 | 0.0 | 0.00 | 0.00 | 0.00 | 68 | 1022.6 |
| 20260906010031 | 16 | 142 | 0.0 | 0.0 | 0.00 | 0.00 | 0.00 | 68 | 1022.6 |
| 20260906005037 | 15 | 142 | 0.0 | 1.6 | 0.00 | 0.00 | 0.00 | 68 | 1022.6 |
| 20260906004020 | 16 | 142 | 0.0 | 0.0 | 0.00 | 0.00 | 0.00 | 68 | 1022.7 |
| 20260906003028 | 16 | 142 | 0.0 | 0.0 | 0.00 | 0.00 | 0.00 | 68 | 1022.7 |
| 20260906002015 | 16 | 142 | 0.0 | 0.0 | 0.00 | 0.00 | 0.00 | 66 | 1022.7 |
| 20260906001021 | 16 | 142 | 0.0 | 0.0 | 0.00 | 0.00 | 0.00 | 67 | 1022.7 |
| 20260906000032 | 16 | 142 | 0.0 | 0.0 | 0.00 | 0.00 | 0.00 | 67 | 1022.7 |
| 20260905235027 | 16 | 142 | 0.0 | 0.0 | 0.00 | 0.00 | 0.00 | 65 | 1022.8 |
| 20260905234015 | 16 | 142 | 0.0 | 0.0 | 0.00 | 0.00 | 0.00 | 65 | 1022.8 |
| 20260905233023 | 16 | 142 | 0.0 | 0.0 | 0.00 | 0.00 | 0.00 | 65 | 1022.9 |
| 20260905232012 | 16 | 142 | 0.0 | 0.0 | 0.00 | 0.00 | 0.00 | 64 | 1023.0 |
| 20260905231020 | 16 | 142 | 0.0 | 0.0 | 0.00 | 0.00 | 0.00 | 65 | 1023.1 |
| 20260905230031 | 17 | 142 | 0.0 | 0.0 | 0.00 | 0.00 | 0.00 | 64 | 1023.0 |
| 20260905225042 | 17 | 142 | 0.0 | 0.0 | 0.00 | 0.00 | 0.00 | 64 | 1023.0 |
| 20260905224023 | 17 | 142 | 0.0 | 0.0 | 0.00 | 0.00 | 0.00 | 63 | 1023.1 |
| 20260905223012 | 16 | 142 | 0.0 | 0.0 | 0.00 | 0.00 | 0.00 | 64 | 1023.2 |
| 20260905222019 | 17 | 142 | 0.0 | 0.0 | 0.00 | 0.00 | 0.00 | 63 | 1023.3 |
| 20260905221021 | 17 | 142 | 0.0 | 0.0 | 0.00 | 0.00 | 0.00 | 63 | 1023.3 |
| 20260905220031 | 17 | 142 | 0.0 | 0.0 | 0.00 | 0.00 | 0.00 | 62 | 1023.4 |
| 20260905215036 | 17 | 142 | 0.0 | 0.0 | 0.00 | 0.00 | 0.00 | 61 | 1023.4 |
| 20260905214024 | 17 | 142 | 0.0 | 0.0 | 0.00 | 0.00 | 0.00 | 61 | 1023.4 |
| 20260905213033 | 17 | 142 | 0.0 | 0.0 | 0.00 | 0.00 | 0.00 | 61 | 1023.4 |
| 20260905212019 | 17 | 142 | 0.0 | 0.0 | 0.00 | 0.00 | 0.00 | 60 | 1023.3 |
| 20260905211025 | 17 | 142 | 0.0 | 0.0 | 0.00 | 0.00 | 0.00 | 60 | 1023.3 |
| 20260905210032 | 18 | 142 | 0.0 | 0.0 | 0.00 | 0.00 | 0.00 | 60 | 1023.3 |
| 20260905205036 | 17 | 142 | 0.0 | 0.0 | 0.00 | 0.00 | 0.00 | 60 | 1023.4 |
| 20260905204018 | 18 | 142 | 0.0 | 0.0 | 0.00 | 0.00 | 0.00 | 58 | 1023.4 |
| 20260905203027 | 18 | 142 | 0.0 | 0.0 | 0.00 | 0.00 | 0.00 | 58 | 1023.4 |
| 20260905202014 | 18 | 142 | 0.0 | 3.2 | 0.00 | 0.00 | 0.00 | 58 | 1023.4 |
| 20260905201024 | 18 | 142 | 0.0 | 0.0 | 0.00 | 0.00 | 0.00 | 58 | 1023.5 |
| 20260905200052 | 18 | 142 | 0.0 | 0.0 | 0.00 | 0.00 | 0.00 | 57 | 1023.5 |
| 20260905195049 | 18 | 142 | 0.0 | 0.0 | 0.00 | 0.00 | 0.00 | 58 | 1023.6 |
| 20260905194016 | 18 | 142 | 0.0 | 0.0 | 0.00 | 0.00 | 0.00 | 59 | 1023.6 |
| 20260905193025 | 18 | 142 | 0.0 | 3.2 | 0.00 | 0.00 | 0.00 | 57 | 1023.6 |
| 20260905192014 | 19 | 142 | 0.0 | 4.8 | 0.00 | 0.00 | 0.00 | 56 | 1023.5 |
| 20260905191021 | 20 | 142 | 3.2 | 6.4 | 0.00 | 0.00 | 0.00 | 55 | 1023.6 |
| 20260905190031 | 20 | 93 | 0.0 | 4.8 | 0.00 | 0.00 | 0.00 | 55 | 1023.8 |
| 20260905185016 | 19 | 93 | 1.6 | 4.8 | 0.00 | 0.00 | 0.00 | 57 | 1023.6 |
| 20260905184019 | 20 | 93 | 0.0 | 0.0 | 0.00 | 0.00 | 0.00 | 57 | 1023.5 |
| 20260905183028 | 21 | 93 | 0.0 | 0.0 | 0.00 | 0.00 | 0.00 | 54 | 1023.4 |
| 20260905182016 | 20 | 92 | 0.0 | 0.0 | 0.00 | 0.00 | 0.00 | 54 | 1023.2 |
| 20260905181024 | 20 | 92 | 0.0 | 4.8 | 0.00 | 0.00 | 0.00 | 54 | 1023.1 |
| 20260905180031 | 21 | 103 | 3.2 | 4.8 | 0.00 | 0.00 | 0.00 | 52 | 1023.1 |
| 20260905175031 | 21 | 96 | 0.0 | 6.4 | 0.00 | 0.00 | 0.00 | 52 | 1023.0 |
| 20260905174020 | 21 | 128 | 0.0 | 3.2 | 0.00 | 0.00 | 0.00 | 51 | 1022.9 |
| 20260905173028 | 21 | 128 | 4.8 | 6.4 | 0.00 | 0.00 | 0.00 | 49 | 1022.8 |
| 20260905172016 | 22 | 132 | 3.2 | 4.8 | 0.00 | 0.00 | 0.00 | 47 | 1022.7 |
| 20260905171024 | 22 | 130 | 3.2 | 9.7 | 0.00 | 0.00 | 0.00 | 46 | 1022.6 |
| 20260905170032 | 22 | 138 | 1.6 | 6.4 | 0.00 | 0.00 | 0.00 | 46 | 1022.7 |
| 20260905165015 | 23 | 159 | 3.2 | 8.0 | 0.00 | 0.00 | 0.00 | 44 | 1022.6 |
| 20260905164019 | 23 | 157 | 3.2 | 4.8 | 0.00 | 0.00 | 0.00 | 43 | 1022.6 |
| 20260905163049 | 24 | 186 | 1.6 | 4.8 | 0.00 | 0.00 | 0.00 | 42 | 1022.5 |
| 20260905162016 | 25 | 318 | 4.8 | 12.9 | 0.00 | 0.00 | 0.00 | 39 | 1022.5 |
| 20260905161023 | 26 | 316 | 4.8 | 12.9 | 0.00 | 0.00 | 0.00 | 39 | 1022.5 |
| 20260905160032 | 26 | 270 | 4.8 | 16.1 | 0.00 | 0.00 | 0.00 | 38 | 1022.5 |
| 20260905155021 | 26 | 336 | 11.3 | 20.9 | 0.00 | 0.00 | 0.00 | 37 | 1022.4 |
| 20260905154031 | 26 | 301 | 8.0 | 17.7 | 0.00 | 0.00 | 0.00 | 37 | 1022.5 |
| 20260905153036 | 27 | 347 | 9.7 | 19.3 | 0.00 | 0.00 | 0.00 | 37 | 1022.3 |
| 20260905152017 | 27 | 355 | 12.9 | 20.9 | 0.00 | 0.00 | 0.00 | 38 | 1022.4 |
| 20260905151057 | 27 | 331 | 11.3 | 24.1 | 0.00 | 0.00 | 0.00 | 38 | 1022.3 |
| 20260905150033 | 27 | 335 | 9.7 | 22.5 | 0.00 | 0.00 | 0.00 | 38 | 1022.3 |
| 20260905145018 | 27 | 327 | 9.7 | 27.4 | 0.00 | 0.00 | 0.00 | 39 | 1022.2 |
| 20260905144024 | 27 | 343 | 11.3 | 22.5 | 0.00 | 0.00 | 0.00 | 38 | 1022.2 |
| 20260905143032 | 27 | 349 | 16.1 | 25.7 | 0.00 | 0.00 | 0.00 | 39 | 1022.0 |
| 20260905142017 | 28 | 325 | 20.9 | 32.2 | 0.00 | 0.00 | 0.00 | 38 | 1021.9 |
| 20260905141023 | 28 | 248 | 9.7 | 20.9 | 0.00 | 0.00 | 0.00 | 36 | 1021.8 |
| 20260905140033 | 28 | 336 | 8.0 | 22.5 | 0.00 | 0.00 | 0.00 | 35 | 1021.8 |
| 20260905135013 | 29 | 329 | 14.5 | 20.9 | 0.00 | 0.00 | 0.00 | 35 | 1021.8 |
| 20260905134019 | 29 | 313 | 9.7 | 22.5 | 0.00 | 0.00 | 0.00 | 35 | 1021.7 |
| 20260905133028 | 29 | 346 | 14.5 | 22.5 | 0.00 | 0.00 | 0.00 | 34 | 1021.8 |
| 20260905132037 | 30 | 316 | 12.9 | 17.7 | 0.00 | 0.00 | 0.00 | 31 | 1021.8 |
| 20260905131023 | 31 | 320 | 4.8 | 11.3 | 0.00 | 0.00 | 0.00 | 27 | 1021.7 |
| 20260905130032 | 30 | 246 | 6.4 | 14.5 | 0.00 | 0.00 | 0.00 | 29 | 1021.7 |
| 20260905125036 | 30 | 312 | 6.4 | 16.1 | 0.00 | 0.00 | 0.00 | 28 | 1021.8 |
| 20260905124020 | 30 | 348 | 3.2 | 12.9 | 0.00 | 0.00 | 0.00 | 30 | 1021.9 |
| 20260905123029 | 30 | 293 | 4.8 | 14.5 | 0.00 | 0.00 | 0.00 | 29 | 1022.0 |
| 20260905122017 | 30 | 78 | 3.2 | 9.7 | 0.00 | 0.00 | 0.00 | 29 | 1022.1 |
| 20260905121023 | 30 | 157 | 8.0 | 14.5 | 0.00 | 0.00 | 0.00 | 27 | 1022.1 |
| 20260905120032 | 30 | 318 | 4.8 | 8.0 | 0.00 | 0.00 | 0.00 | 28 | 1022.4 |
| 20260905115012 | 30 | 201 | 4.8 | 12.9 | 0.00 | 0.00 | 0.00 | 27 | 1022.6 |
| 20260905114019 | 30 | 325 | 4.8 | 11.3 | 0.00 | 0.00 | 0.00 | 26 | 1022.6 |
| 20260905113048 | 29 | 50 | 4.8 | 8.0 | 0.00 | 0.00 | 0.00 | 26 | 1022.6 |
| 20260905112014 | 29 | 163 | 6.4 | 11.3 | 0.00 | 0.00 | 0.00 | 28 | 1022.7 |
| 20260905111022 | 29 | 265 | 3.2 | 8.0 | 0.00 | 0.00 | 0.00 | 28 | 1022.8 |
| 20260905110052 | 30 | 171 | 6.4 | 12.9 | 0.00 | 0.00 | 0.00 | 29 | 1022.7 |
| 20260905105016 | 29 | 190 | 6.4 | 12.9 | 0.00 | 0.00 | 0.00 | 30 | 1022.9 |
| 20260905104021 | 29 | 194 | 3.2 | 11.3 | 0.00 | 0.00 | 0.00 | 30 | 1022.8 |
| 20260905103029 | 28 | 201 | 4.8 | 16.1 | 0.00 | 0.00 | 0.00 | 30 | 1022.8 |
| 20260905102015 | 28 | 132 | 4.8 | 14.5 | 0.00 | 0.00 | 0.00 | 32 | 1023.0 |
| 20260905101022 | 28 | 165 | 6.4 | 11.3 | 0.00 | 0.00 | 0.00 | 34 | 1022.9 |
| 20260905100032 | 28 | 196 | 4.8 | 11.3 | 0.00 | 0.00 | 0.00 | 31 | 1023.0 |
| 20260905095016 | 27 | 355 | 1.6 | 12.9 | 0.00 | 0.00 | 0.00 | 34 | 1023.1 |
| 20260905094021 | 28 | 173 | 6.4 | 16.1 | 0.00 | 0.00 | 0.00 | 34 | 1023.1 |
| 20260905093031 | 27 | 161 | 4.8 | 12.9 | 0.00 | 0.00 | 0.00 | 34 | 1023.1 |
| 20260905092020 | 27 | 194 | 4.8 | 12.9 | 0.00 | 0.00 | 0.00 | 35 | 1023.2 |
| 20260905091025 | 27 | 209 | 3.2 | 12.9 | 0.00 | 0.00 | 0.00 | 38 | 1023.3 |
| 20260905090031 | 26 | 271 | 3.2 | 12.9 | 0.00 | 0.00 | 0.00 | 37 | 1023.3 |
| 20260905085030 | 26 | 279 | 1.6 | 9.7 | 0.00 | 0.00 | 0.00 | 38 | 1023.5 |
| 20260905084017 | 27 | 139 | 3.2 | 8.0 | 0.00 | 0.00 | 0.00 | 37 | 1023.4 |
| 20260905083025 | 27 | 112 | 1.6 | 16.1 | 0.00 | 0.00 | 0.00 | 38 | 1023.4 |
| 20260905082015 | 26 | 192 | 6.4 | 11.3 | 0.00 | 0.00 | 0.00 | 41 | 1023.3 |
| 20260905081023 | 26 | 171 | 3.2 | 11.3 | 0.00 | 0.00 | 0.00 | 40 | 1023.4 |